World > North America > United States > South Carolina > Pendleton   Town of Pendleton, SC

Pendleton, SC Hourly Weather Updates

Feedback E-mail the Weather

Quick Clicks

Pendleton, SC Weather Maps

°F °C°F °C
Pendleton Weather Map
UTC Time: 4/22/2024, 10:14
Your Time:

Pendleton, SC Regional Weather

Expires:202404221000;;176356
ASUS42 KCAE 220910
RWRCAE
REGIONAL WEATHER ROUNDUP
NATIONAL WEATHER SERVICE COLUMBIA SC
500 AM EDT MON APR 22 2024

NOTE: "FAIR" INDICATES FEW OR NO CLOUDS BELOW 12,000 FEET WITH NO
SIGNIFICANT WEATHER AND/OR OBSTRUCTIONS TO VISIBILITY.

NOT ALL STATIONS ARE QUALITY CONTROLLED BY THE NATIONAL 
WEATHER SERVICE. USE DATA WITH CAUTION...ESPECIALLY 
DEWPOINT OBSERVATIONS.


SCZ001>059-115-116-135>137-GAZ040-063>065-077-221000-
...UPSTATE SOUTH CAROLINA...
  
CITY           SKY/WX    TMP DP  RH WIND       PRES   REMARKS
ANDERSON       CLOUDY    50  40  68 CALM      30.04R                  
LIBERTY        CLOUDY    46  42  84 NE3       30.03S                  
SPARTANBURG    MOCLDY    45  37  76 N9        30.05R                  
CLEMSON        CLOUDY    48  37  65 N5        30.04S                  
GREENVILLE     CLOUDY    47  33  58 NE9       30.05R                  
GREENWOOD      CLOUDY    49  43  80 N6        30.05R                  
GREER          MOCLDY    44  39  82 N3        30.05R                  
ROCK HILL      PTCLDY    48  46  93 VRB6      30.05R                  
LAURENS        CLOUDY    46  46 100 N3        30.04R                  


...CENTRAL SOUTH CAROLINA...
  
CITY           SKY/WX    TMP DP  RH WIND       PRES   REMARKS
COLUMBIA APT   CLOUDY    49  49 100 NE3       30.02R                  
COLUMBIA OWENS CLOUDY    50  48  93 CALM      30.04R                  
ORANGEBURG     CLOUDY    53  48  83 N6        30.02R                  
SUMTER SHAW    CLOUDY    51  48  89 NE9       30.00R                  
AIKEN          CLOUDY    51  50  97 N3        30.04R                  
BARNWELL       CLOUDY    50  50 100 N5        30.02S                  
MANNING        CLOUDY    50  48  93 NE9       30.00F                  
CAMDEN         MOCLDY    48  48 100 CALM      30.03S                  
LANCASTER      CLOUDY    46  46 100 VRB3      30.05R                  
WINNSBORO      CLOUDY    46  46 100 CALM      30.03R                  


...EASTERN AND COASTAL SOUTH CAROLINA...
  
CITY           SKY/WX    TMP DP  RH WIND       PRES   REMARKS
MYRTLE BEACH   CLOUDY    52  52 100 N9        30.00R                  
N MYRTLE BCH   CLOUDY    52  48  86 N9        29.99S                  
CONWAY         CLOUDY    50  46  87 N6        30.02R                  
MARION         CLOUDY    50  50 100 N6        30.03R                  
HARTSVILLE     CLOUDY    46  45  93 NE7       30.03R                  
FLORENCE       CLOUDY    50  48  93 NE8       30.03R                  
DARLINGTON     MOCLDY    48  48 100 NE9       30.04S                  
CHARLESTON APT CLOUDY    53  48  83 N12       29.99R                  
MOUNT PLEASANT CLOUDY    54  54 100 N8        29.99R                  
WALTERBORO     MOCLDY    50  50 100 N5        30.01R                  
BEAUFORT       CLOUDY    55  51  86 N10       29.99R                  
HILTON HEAD    CLOUDY    55  50  82 NE12G18   29.99S                  


...EASTERN GEORGIA...
  
CITY           SKY/WX    TMP DP  RH WIND       PRES   REMARKS
AUGUSTA BUSH F CLOUDY    53  51  93 CALM      30.02R                  
AUGUSTA DANIEL CLOUDY    53  50  89 N5        30.03R                  
THOMSON        CLOUDY    53  52  97 CALM      30.03R                  
WASHINGTON     CLOUDY    50  50  97 CALM      30.04R                  
CLAXTON        CLOUDY    54  53  95 CALM      30.02R                  
STATESBORO     CLOUDY    54  52  94 N3        30.02R                  
SAVANNAH       CLOUDY    54  50  86 N7        30.00R                  


...SOUTHERN NORTH CAROLINA...
  
CITY           SKY/WX    TMP DP  RH WIND       PRES   REMARKS
CHARLOTTE      MOCLDY    46  40  79 N8        30.05R                  
MONROE         MOCLDY    47  46  97 NE7       30.04S                  
WADESBORO      PTCLDY    46  45  95 CALM      30.05S                  
ROCKINGHAM     MOCLDY    46  45  95 N3        30.04S                  
RUTHERFORDTON  PTCLDY    39  37  93 CALM      30.08R                  
ASHEVILLE      PTCLDY    42  29  59 VRB7      30.07R                  

$$
  

SKY/WX - Weather  TMP - Temperature  DP - Dew Point  RH - Humidity
WIND - Wind Direction/Speed PRES - Barometric Pressure VSB - Visibility
WCI - Wind Chill Index E13G22 Wind - East Wind 13 mph/Gusts of 22 mph

Trending Headlines

Trending Entertainment Headlines

Pendleton Radar Loop

Use the map search tool if you want to place a location marker on the radar map...

Pendleton Quick Facts

National Two Day Weather Forecast


E-mail the Pendleton Weather Forecast

Voice your opinion or tell us about page issues...